York, NE

10:00 AM CST on December 14, 2019 (GMT -0600)
York Municipal

Weather History for KJYR - October, 2019

Change the Weather History Date:

Thursday, October 24, 2019

  Actual Average Record
Temperature  
Mean Temperature 37 °F -  
Max Temperature 46 °F 62 °F 83 °F (1952)
Min Temperature 28 °F 39 °F 24 °F (1955)
Degree Days  
Heating Degree Days 28    
Moisture  
Dew Point 26 °F    
Average Humidity 65    
Maximum Humidity 93    
Minimum Humidity 40    
Precipitation  
Precipitation 0.00 in - - ()
Sea Level Pressure  
Sea Level Pressure 30.38 in    
Wind  
Wind Speed 8 mph (North)    
Max Wind Speed 15 mph    
Max Gust Speed 21 mph    
Visibility 10 miles    
Events      
Averages and records for this station are not official NWS values.
T = Trace of Precipitation, MM = Missing Value Source: NWS Daily Summary

Daily Weather History Graph

Daily Weather History Graph

Search for Another Location

Airport or City:

Astronomy

Oct. 24, 2019 Rise Set
Actual Time 7:51 AM CDT 6:37 PM CDT
Civil Twilight 7:23 AM CDT 7:05 PM CDT
Nautical Twilight 6:51 AM CDT 7:37 PM CDT
Astronomical Twilight 6:19 AM CDT 8:08 PM CDT
Moon 3:20 AM CDT (10/24) 5:07 PM CDT (10/24)
Length of Visible Light 11h 41m
Length of Day
10h 45m
Waning Crescent, 16% of the Moon is Illuminated
Oct 24
Waning Crescent
Oct 27
New
Nov 4
First Quarter
Nov 12
Full
Nov 19
Last Quarter

Hourly Weather History & Observations

Time (CDT) Temp. Windchill Dew Point Humidity Pressure Visibility Wind Dir Wind Speed Gust Speed Precip Events Conditions
12:15 AM 37.4 °F 29.8 °F 32.0 °F 81% 30.30 in 10.0 mi North 11.5 mph 17.3 mph N/A   Overcast
12:35 AM 37.4 °F 30.8 °F 32.0 °F 81% 30.31 in 10.0 mi North 9.2 mph - N/A   Overcast
12:55 AM 35.6 °F 28.6 °F 32.0 °F 87% 30.31 in 10.0 mi NNW 9.2 mph - N/A   Overcast
1:15 AM 35.6 °F 28.6 °F 32.0 °F 87% 30.32 in 10.0 mi NNW 9.2 mph - N/A   Mostly Cloudy
1:35 AM 35.6 °F 29.2 °F 30.2 °F 81% 30.34 in 10.0 mi NNW 8.1 mph - N/A   Scattered Clouds
1:55 AM 35.6 °F 28.0 °F 32.0 °F 87% 30.35 in 10.0 mi NNW 10.4 mph - N/A   Mostly Cloudy
2:15 AM 37.4 °F 29.8 °F 30.2 °F 75% 30.33 in 10.0 mi North 11.5 mph - N/A   Overcast
2:35 AM 35.6 °F 29.2 °F 28.4 °F 75% 30.34 in 10.0 mi North 8.1 mph - N/A   Scattered Clouds
3:15 AM 35.6 °F 29.2 °F 28.4 °F 75% 30.35 in 10.0 mi NNW 8.1 mph - N/A   Clear
3:35 AM 33.8 °F 27.0 °F 26.6 °F 75% 30.35 in 10.0 mi NNW 8.1 mph - N/A   Clear
3:55 AM 33.8 °F 25.8 °F 26.6 °F 75% 30.35 in 10.0 mi NNW 10.4 mph - N/A   Clear
4:15 AM 33.8 °F 27.7 °F 26.6 °F 75% 30.34 in 10.0 mi NNW 6.9 mph - N/A   Clear
4:35 AM 32.0 °F 25.6 °F 26.6 °F 80% 30.34 in 10.0 mi NNW 6.9 mph - N/A   Clear
5:15 AM 32.0 °F 24.2 °F 26.6 °F 80% 30.34 in 10.0 mi NW 9.2 mph - N/A   Clear
5:35 AM 32.0 °F 23.6 °F 26.6 °F 80% 30.36 in 10.0 mi NW 10.4 mph - N/A   Clear
5:55 AM 32.0 °F 23.6 °F 26.6 °F 80% 30.36 in 10.0 mi NNW 10.4 mph - N/A   Clear
6:15 AM 32.0 °F 24.2 °F 26.6 °F 80% 30.36 in 10.0 mi North 9.2 mph - N/A   Clear
6:35 AM 32.0 °F 25.6 °F 26.6 °F 80% 30.37 in 10.0 mi North 6.9 mph - N/A   Clear
6:55 AM 32.0 °F 26.4 °F 26.6 °F 80% 30.36 in 10.0 mi North 5.8 mph - N/A   Clear
7:15 AM 32.0 °F 26.4 °F 26.6 °F 80% 30.38 in 10.0 mi NNW 5.8 mph - N/A   Clear
7:35 AM 30.2 °F 23.4 °F 26.6 °F 86% 30.40 in 10.0 mi NNW 6.9 mph - N/A   Clear
7:55 AM 28.4 °F 19.7 °F 26.6 °F 93% 30.41 in 10.0 mi NW 9.2 mph - N/A   Clear
8:15 AM 28.4 °F 21.2 °F 26.6 °F 93% 30.42 in 10.0 mi NNW 6.9 mph - N/A   Clear
8:35 AM 32.0 °F 24.8 °F 26.6 °F 80% 30.43 in 10.0 mi NNW 8.1 mph - N/A   Clear
8:55 AM 32.0 °F 25.6 °F 26.6 °F 80% 30.44 in 10.0 mi NNW 6.9 mph - N/A   Clear
9:15 AM 32.0 °F 28.7 °F 26.6 °F 80% 30.44 in 10.0 mi North 3.5 mph - N/A   Clear
9:35 AM 32.0 °F 24.8 °F 26.6 °F 80% 30.45 in 10.0 mi North 8.1 mph - N/A   Clear
9:55 AM 35.6 °F 29.2 °F 26.6 °F 70% 30.46 in 10.0 mi North 8.1 mph - N/A   Clear
10:15 AM 35.6 °F 28.6 °F 26.6 °F 70% 30.46 in 10.0 mi North 9.2 mph - N/A   Clear
10:35 AM 37.4 °F 31.4 °F 26.6 °F 65% 30.46 in 10.0 mi North 8.1 mph - N/A   Clear
10:55 AM 39.2 °F 30.8 °F 26.6 °F 61% 30.46 in 10.0 mi North 15.0 mph - N/A   Clear
11:15 AM 39.2 °F 30.8 °F 24.8 °F 56% 30.45 in 10.0 mi NNE 15.0 mph - N/A   Clear
11:35 AM 41.0 °F 33.9 °F 24.8 °F 53% 30.45 in 10.0 mi NNE 12.7 mph 19.6 mph N/A   Clear
11:55 AM 41.0 °F 34.7 °F 23.0 °F 49% 30.45 in 10.0 mi North 10.4 mph 18.4 mph N/A   Clear
12:15 PM 42.8 °F 37.0 °F 24.8 °F 49% 30.45 in 10.0 mi NE 10.4 mph - N/A   Clear
12:35 PM 42.8 °F 36.6 °F 23.0 °F 46% 30.44 in 10.0 mi NE 11.5 mph 20.7 mph N/A   Clear
12:55 PM 44.6 °F 38.4 °F 23.0 °F 43% 30.44 in 10.0 mi NE 12.7 mph - N/A   Clear
1:15 PM 44.6 °F 38.4 °F 23.0 °F 43% 30.43 in 10.0 mi NE 12.7 mph 16.1 mph N/A   Clear
1:35 PM 44.6 °F 39.7 °F 23.0 °F 43% 30.42 in 10.0 mi East 9.2 mph 18.4 mph N/A   Clear
1:55 PM 44.6 °F 38.4 °F 23.0 °F 43% 30.40 in 10.0 mi NE 12.7 mph 19.6 mph N/A   Clear
2:15 PM 44.6 °F 39.7 °F 23.0 °F 43% 30.38 in 10.0 mi North 9.2 mph - N/A   Clear
2:35 PM 46.4 °F 41.1 °F 23.0 °F 40% 30.37 in 10.0 mi North 11.5 mph 18.4 mph N/A   Clear
2:55 PM 46.4 °F 41.1 °F 24.8 °F 43% 30.35 in 10.0 mi SSE 11.5 mph - N/A   Clear
3:15 PM 46.4 °F 40.4 °F 24.8 °F 43% 30.34 in 10.0 mi NNE 13.8 mph 18.4 mph N/A   Clear
3:35 PM 46.4 °F 41.9 °F 24.8 °F 43% 30.34 in 10.0 mi North 9.2 mph - N/A   Clear
4:15 PM 46.4 °F 41.5 °F 23.0 °F 40% 30.35 in 10.0 mi North 10.4 mph - N/A   Clear
4:35 PM 46.4 °F 44.3 °F 23.0 °F 40% 30.35 in 10.0 mi North 4.6 mph - N/A   Clear
4:55 PM 46.4 °F 42.9 °F 24.8 °F 43% 30.36 in 10.0 mi NNE 6.9 mph - N/A   Clear
5:15 PM 46.4 °F 41.5 °F 24.8 °F 43% 30.37 in 10.0 mi NNE 10.4 mph - N/A   Clear
5:35 PM 46.4 °F - 24.8 °F 43% 30.37 in 10.0 mi Calm Calm - N/A   Clear
5:55 PM 44.6 °F 41.4 °F 24.8 °F 46% 30.37 in 10.0 mi NNE 5.8 mph - N/A   Clear
6:15 PM 44.6 °F - 24.8 °F 46% 30.37 in 10.0 mi Calm Calm - N/A   Clear
6:35 PM 42.8 °F - 23.0 °F 46% 30.38 in 10.0 mi Calm Calm - N/A   Clear
6:55 PM 41.0 °F - 24.8 °F 53% 30.38 in 10.0 mi Calm Calm - N/A   Clear
7:15 PM 41.0 °F - 24.8 °F 53% 30.37 in 10.0 mi Calm Calm - N/A   Clear
7:35 PM 41.0 °F - 23.0 °F 49% 30.38 in 10.0 mi Calm Calm - N/A   Clear
7:55 PM 37.4 °F - 24.8 °F 60% 30.39 in 10.0 mi Calm Calm - N/A   Clear
8:15 PM 37.4 °F - 26.6 °F 65% 30.39 in 10.0 mi Calm Calm - N/A   Clear
8:35 PM 35.6 °F - 26.6 °F 70% 30.38 in 10.0 mi Calm Calm - N/A   Clear
8:55 PM 37.4 °F - 24.8 °F 60% 30.38 in 10.0 mi Calm Calm - N/A   Clear
9:15 PM 37.4 °F - 24.8 °F 60% 30.38 in 10.0 mi Calm Calm - N/A   Clear
9:35 PM 33.8 °F - 24.8 °F 70% 30.38 in 10.0 mi Calm Calm - N/A   Clear
9:55 PM 30.2 °F - 26.6 °F 86% 30.38 in 10.0 mi Calm Calm - N/A   Clear
10:15 PM 32.0 °F - 24.8 °F 75% 30.38 in 9.0 mi Calm Calm - N/A   Clear
10:35 PM 32.0 °F - 24.8 °F 75% 30.38 in 10.0 mi Calm Calm - N/A   Clear
10:55 PM 32.0 °F 28.7 °F 24.8 °F 75% 30.39 in 10.0 mi SSW 3.5 mph - N/A   Clear
11:15 PM 32.0 °F - 24.8 °F 75% 30.39 in 10.0 mi Calm Calm - N/A   Clear
11:35 PM 32.0 °F - 24.8 °F 75% 30.39 in 10.0 mi Calm Calm - N/A   Clear
11:55 PM 32.0 °F 28.7 °F 24.8 °F 75% 30.38 in 10.0 mi WSW 3.5 mph - N/A   Clear